Location: Milton
(43.5183°N, 79.8775°W)
Time: 07:16:40
(UTC+00:00)

NOAA 16 DEB - Visible Passes

Search period start: 03 December 2023 00:00
Search period end: 13 December 2023 00:00
Orbit: 744 x 810 km, 99.0° (Epoch: 02 December)

Date Brightness Start Highest point End Pass type
(mag) Time Alt. Az. Time Alt. Az. Time Alt. Az.
03 Dec ? 22:54:03 10° NNW 22:58:03 22° WNW 23:02:01 10° WSW visible
04 Dec ? 22:19:57 10° N 22:24:53 41° WNW 22:29:44 10° SW visible
05 Dec ? 23:27:38 10° NNW 23:29:44 12° NW 23:31:50 10° W visible
06 Dec ? 22:52:31 10° NNW 22:56:34 23° WNW 23:00:34 10° WSW visible
07 Dec ? 22:18:12 10° N 22:23:09 43° WNW 22:27:59 10° SW visible
08 Dec ? 23:25:27 10° NNW 23:27:45 13° NW 23:30:02 10° W visible
09 Dec ? 22:50:11 10° N 22:54:19 24° WNW 22:58:23 10° WSW visible
10 Dec ? 22:15:39 10° N 22:20:37 46° WNW 22:25:29 10° SW visible
11 Dec ? 23:22:28 10° NNW 23:25:00 14° WNW 23:27:30 10° W visible
12 Dec ? 22:47:05 10° N 22:51:18 26° WNW 22:55:27 10° WSW visible
